Location: Augirein
(42.9320°N, 0.9181°E)
Time: 18:16:51
(UTC+00:00)

SL-16 R/B - Pass Details

Date: 20 June 2021
Orbit: 985 x 1007 km, 99.5° (Epoch: 02 August)

Event Time Altitude Azimuth Distance (km) Brightness Sun altitude
Exits shadow 00:59:49 16° 135° (SE) 2,352 4.2 -22.1°
Maximum altitude 01:04:33 47° 67° (ENE) 1,287 3.3 -21.9°
Drops below altitude 10° 01:10:26 10° 356° (N) 2,758 5.8 -21.6°
Sets 01:12:59 0° 351° (N) 3,708 6.6 -21.4°
